Location: Kumla
(59.1265°N, 15.1401°E)
Time: 10:37:49
(UTC+01:00)

Vanguard 1 Rocket - Pass Details

Date: 04 December 2023
Orbit: 653 x 4219 km, 34.3° (Epoch: 01 March)

Event Time Altitude Azimuth Distance (km) Brightness Sun altitude
Rises 07:05:22 0° 238° (WSW) 7,427 11.7 -9.8°
Reaches altitude 10° 07:12:49 10° 225° (SW) 5,718 11.3 -8.9°
Maximum altitude 07:22:27 20° 188° (S) 3,890 10.9 -7.9°
Drops below altitude 10° 07:29:07 10° 147° (SSE) 3,778 11.8 -7.1°
Sets 07:32:38 0° 129° (SE) 4,299 13.3 -6.8°
